Regional Weather Roundup
Issued by NWS

Home | Current Version | Previous Version | Graphics & Text | Print | Product List | Glossary On
Versions: 1 2 3 4 5 6 7 8 9 10 11 12 13 14 15 16 17 18 19 20 21 22 23 24 25 26 27 28 29 30 31 32 33 34 35 36 37 38 39 40 41 42 43 44 45 46 47 48 49 50
000
ASUS45 KBOI 050110
RWRID

IDAHO REGIONAL WEATHER ROUNDUP
NATIONAL WEATHER SERVICE BOISE ID
700 PM MDT TUE AUG 04 2015

NOTE: "FAIR" INDICATES FEW OR NO CLOUDS BELOW 12000 FEET
WITH NO SIGNIFICANT WEATHER AND/OR OBSTRUCTIONS TO VISIBILITY

IDZ012-014-050200-
SOUTHWEST IDAHO


CITY           SKY/WX    TMP DP  RH WIND       PRES   REMARKS
BOISE          SUNNY     91  42  18 CALM      29.88S
CALDWELL       SUNNY     91  48  22 N3        29.85F
MOUNTAIN HOME  CLOUDY    91  46  21 NW15      29.86R
$$

IDZ016-017-050200-
SOUTHCENTRAL IDAHO


CITY           SKY/WX    TMP DP  RH WIND       PRES   REMARKS
BURLEY         CLOUDY    73  52  47 SE13      29.99F
JEROME         PTSUNNY   82  45  27 E12       29.96R
TWIN FALLS     PTSUNNY   85  42  22 E12       29.94S
$$

IDZ019>023-050200-
SOUTHEAST IDAHO


CITY           SKY/WX    TMP DP  RH WIND       PRES   REMARKS
IDAHO FALLS    PTSUNNY   79  49  34 E10       30.02F
POCATELLO      PTSUNNY   80  40  23 SW35G44   30.04R
REXBURG        MOSUNNY   74  48  39 NE13      30.05R
$$

IDZ006-010-011-018-031-032-050200-
CENTRAL IDAHO MOUNTAINS


CITY           SKY/WX    TMP DP  RH WIND       PRES   REMARKS
MCCALL         SUNNY     80  37  21 S12       30.01S
HAILEY         MOSUNNY   82  39  21 W12       30.04F
STANLEY          N/A     77  29  17 VRB7      30.12S
SALMON         MOSUNNY   84  43  23 CALM      29.87S
CHALLIS        MOSUNNY   85  29  13 W13       29.98S
$$

IDZ002-004-006-007-026-050200-
NORTHERN IDAHO


CITY           SKY/WX    TMP DP  RH WIND       PRES   REMARKS
LEWISTON       SUNNY     93  40  15 N17G24    29.79S
LOWELL           N/A     87  53  31 VRB5      29.78S
COEUR D`ALENE  MOSUNNY   84  39  20 W13       29.83F
MULLAN PASS    SUNNY     67  35  30 SW7       30.08F
$$


USA.gov is the U.S. government's official web portal to all federal, state and local government web resources and services.